VTE1108 KPHX-KPGA

Flight info

Callsign VTE1108
Flight time 0h 40m
Altitude 34000
Route SPRKY GOALY QUAKY SNOBL CARTL/N0443F330 FLG/N0440F340 CELAY EKAME DIBEY CADRI JATKA AYAVA
Aircraft E135/M-SDFGIRW/S

Departure

Time 2026-05-07 17:54
Airport Phoenix Sky Harbor International Airport (KPHX)

Arrival

Time 2026-05-07 18:35
Airport Page Municipal Airport (KPGA)
Time Latitude Longitude Altitude Speed Heading
2026-05-07 17:46 33.43898 -111.99934 1134 ft 18 kts 266°
2026-05-07 17:47 33.43901 -112.00094 1133 ft 20 kts 271°
2026-05-07 17:47 33.43902 -112.00246 1132 ft 9 kts 271°
2026-05-07 17:47 33.43881 -112.00317 1132 ft 5 kts 288°
2026-05-07 17:47 33.43879 -112.00374 1132 ft 10 kts 201°
2026-05-07 17:48 33.43791 -112.00379 1132 ft 14 kts 179°
2026-05-07 17:48 33.43679 -112.00381 1132 ft 16 kts 180°
2026-05-07 17:48 33.43551 -112.00382 1130 ft 20 kts 180°
2026-05-07 17:48 33.43400 -112.00382 1129 ft 22 kts 181°
2026-05-07 17:49 33.43240 -112.00389 1127 ft 22 kts 200°
2026-05-07 17:49 33.43216 -112.00515 1129 ft 16 kts 270°
2026-05-07 17:49 33.43215 -112.00661 1129 ft 18 kts 270°
2026-05-07 17:49 33.43216 -112.00821 1130 ft 20 kts 270°
2026-05-07 17:50 33.43216 -112.00998 1130 ft 22 kts 270°
2026-05-07 17:50 33.43216 -112.01191 1129 ft 22 kts 269°
2026-05-07 17:50 33.43217 -112.01390 1127 ft 24 kts 270°
2026-05-07 17:50 33.43217 -112.01605 1125 ft 26 kts 270°
2026-05-07 17:51 33.43219 -112.01833 1124 ft 28 kts 270°
2026-05-07 17:51 33.43215 -112.01917 1123 ft 9 kts 266°
2026-05-07 17:51 33.43216 -112.02050 1121 ft 14 kts 271°
2026-05-07 17:51 33.43217 -112.02177 1122 ft 16 kts 270°
2026-05-07 17:52 33.43217 -112.02324 1122 ft 18 kts 270°
2026-05-07 17:52 33.43216 -112.02486 1122 ft 20 kts 269°
2026-05-07 17:52 33.43215 -112.02653 1119 ft 12 kts 259°
2026-05-07 17:52 33.43166 -112.02697 1119 ft 10 kts 182°
2026-05-07 17:53 33.43104 -112.02660 1119 ft 12 kts 90°
2026-05-07 17:53 33.43106 -112.02628 1120 ft 0 kts 88°
2026-05-07 17:53 33.43106 -112.02490 1122 ft 52 kts 90°
2026-05-07 17:53 33.43105 -112.01741 1124 ft 124 kts 90°
2026-05-07 17:54 33.43105 -112.00566 1355 ft 150 kts 91°
2026-05-07 17:54 33.43104 -111.99236 1857 ft 168 kts 91°
2026-05-07 17:54 33.43108 -111.97814 2460 ft 182 kts 91°
2026-05-07 17:54 33.43237 -111.96169 2651 ft 224 kts 84°
2026-05-07 17:55 33.43385 -111.94156 3000 ft 255 kts 87°
2026-05-07 17:55 33.43475 -111.92065 3919 ft 258 kts 88°
2026-05-07 17:55 33.43545 -111.89897 4745 ft 265 kts 88°
2026-05-07 17:55 33.43723 -111.87712 5670 ft 268 kts 75°
2026-05-07 17:56 33.44655 -111.85824 6550 ft 271 kts 44°
2026-05-07 17:56 33.46291 -111.84761 7440 ft 274 kts 13°
2026-05-07 17:56 33.48250 -111.84789 7999 ft 293 kts 347°
2026-05-07 17:56 33.50177 -111.85510 8026 ft 282 kts 342°
2026-05-07 17:57 33.51998 -111.86214 8020 ft 267 kts 345°
2026-05-07 17:57 33.53187 -111.86407 8021 ft 258 kts
2026-05-07 17:57 33.55608 -111.86032 8209 ft 275 kts 10°
2026-05-07 17:57 33.57505 -111.85587 9083 ft 277 kts 11°
2026-05-07 17:58 33.59358 -111.85126 9985 ft 278 kts 12°
2026-05-07 17:58 33.61279 -111.84643 10693 ft 285 kts 12°
2026-05-07 17:58 33.63254 -111.84144 11135 ft 298 kts 12°
2026-05-07 17:58 33.65334 -111.83770 11592 ft 310 kts 360°
2026-05-07 17:59 33.67495 -111.84178 12021 ft 321 kts 350°
2026-05-07 17:59 33.69739 -111.84686 12470 ft 329 kts 351°
2026-05-07 17:59 33.71974 -111.85188 13162 ft 332 kts 351°
2026-05-07 17:59 33.74241 -111.85697 13924 ft 333 kts 351°
2026-05-07 18:00 33.76514 -111.86208 14715 ft 335 kts 352°
2026-05-07 18:00 33.78811 -111.86724 15577 ft 333 kts 352°
2026-05-07 18:00 33.81070 -111.87232 16271 ft 334 kts 353°
2026-05-07 18:00 33.83361 -111.87747 16847 ft 338 kts 353°
2026-05-07 18:01 33.85696 -111.88273 17509 ft 340 kts 353°
2026-05-07 18:01 33.88000 -111.88792 18182 ft 341 kts 353°
2026-05-07 18:01 33.90345 -111.89320 18945 ft 338 kts 353°
2026-05-07 18:01 33.92636 -111.89836 19692 ft 336 kts 353°
2026-05-07 18:02 33.97201 -111.90866 21211 ft 331 kts 354°
2026-05-07 18:02 33.99431 -111.91370 21919 ft 329 kts 354°
2026-05-07 18:02 34.01664 -111.91875 22602 ft 328 kts 355°
2026-05-07 18:03 34.03912 -111.92383 23348 ft 325 kts 354°
2026-05-07 18:03 34.06104 -111.92878 24049 ft 323 kts 354°
2026-05-07 18:03 34.08327 -111.93381 24714 ft 322 kts 354°
2026-05-07 18:03 34.10513 -111.93717 25376 ft 317 kts 360°
2026-05-07 18:04 34.12729 -111.93957 25998 ft 317 kts 360°
2026-05-07 18:04 34.14893 -111.94195 26627 ft 316 kts 359°
2026-05-07 18:04 34.17098 -111.94437 27248 ft 315 kts 359°
2026-05-07 18:04 34.19246 -111.94675 27901 ft 312 kts 359°
2026-05-07 18:05 34.21415 -111.94913 28494 ft 312 kts 359°
2026-05-07 18:05 34.23562 -111.95150 29093 ft 310 kts 359°
2026-05-07 18:05 34.25704 -111.95386 29683 ft 309 kts 359°
2026-05-07 18:05 34.27840 -111.95623 30261 ft 307 kts 359°
2026-05-07 18:06 34.29941 -111.95854 30783 ft 307 kts 359°
2026-05-07 18:06 34.32067 -111.96090 31319 ft 306 kts 359°
2026-05-07 18:06 34.34187 -111.96324 31881 ft 304 kts 359°
2026-05-07 18:06 34.36284 -111.96556 32400 ft 304 kts 359°
2026-05-07 18:07 34.38395 -111.96790 32926 ft 302 kts 359°
2026-05-07 18:07 34.40467 -111.97020 33478 ft 300 kts 359°
2026-05-07 18:07 34.42556 -111.97251 33940 ft 300 kts 359°
2026-05-07 18:07 34.44672 -111.97484 34189 ft 308 kts 359°
2026-05-07 18:08 34.46848 -111.97723 34205 ft 322 kts 359°
2026-05-07 18:08 34.49149 -111.97976 34205 ft 337 kts 359°
2026-05-07 18:08 34.51530 -111.98239 34197 ft 351 kts 359°
2026-05-07 18:08 34.53980 -111.98511 34195 ft 363 kts 358°
2026-05-07 18:09 34.56538 -111.98795 34190 ft 371 kts 359°
2026-05-07 18:09 34.61760 -111.99373 34178 ft 382 kts 358°
2026-05-07 18:10 34.67140 -111.99970 34168 ft 392 kts 359°
2026-05-07 18:10 34.72637 -112.00462 34164 ft 397 kts
2026-05-07 18:11 34.78027 -111.99196 34172 ft 398 kts 22°
2026-05-07 18:11 34.82807 -111.95824 34187 ft 401 kts 40°
2026-05-07 18:12 34.87239 -111.91637 34199 ft 399 kts 37°
2026-05-07 18:12 34.91689 -111.87704 34214 ft 394 kts 36°
2026-05-07 18:13 34.96157 -111.83778 34228 ft 395 kts 36°
2026-05-07 18:13 35.00595 -111.79876 34241 ft 395 kts 36°
2026-05-07 18:14 35.05050 -111.75954 34252 ft 396 kts 36°
2026-05-07 18:14 35.09528 -111.72008 34273 ft 398 kts 36°
2026-05-07 18:15 35.14149 -111.68250 34293 ft 402 kts 27°
2026-05-07 18:15 35.19553 -111.66249 34298 ft 410 kts 10°
2026-05-07 18:16 35.25210 -111.65188 34290 ft 413 kts 12°
2026-05-07 18:16 35.30881 -111.64000 34280 ft 413 kts 11°
2026-05-07 18:17 35.36456 -111.62820 34271 ft 402 kts 12°
2026-05-07 18:17 35.41935 -111.61657 34263 ft 399 kts 12°
2026-05-07 18:18 35.47427 -111.60489 34263 ft 398 kts 11°
2026-05-07 18:18 35.52883 -111.59328 34260 ft 401 kts 11°
2026-05-07 18:19 35.58419 -111.58147 34265 ft 405 kts 11°
2026-05-07 18:19 35.63953 -111.56993 34265 ft 404 kts 10°
2026-05-07 18:19 35.66743 -111.56476 34018 ft 402 kts 10°
2026-05-07 18:20 35.69490 -111.55971 33471 ft 396 kts 10°
2026-05-07 18:20 35.72181 -111.55479 33087 ft 391 kts
2026-05-07 18:20 35.74849 -111.54990 32708 ft 388 kts
2026-05-07 18:20 35.77515 -111.54503 32382 ft 383 kts
2026-05-07 18:21 35.80143 -111.54022 32079 ft 379 kts
2026-05-07 18:21 35.82709 -111.53552 31705 ft 375 kts
2026-05-07 18:21 35.85302 -111.53076 31192 ft 372 kts
2026-05-07 18:21 35.87864 -111.52607 30992 ft 370 kts
2026-05-07 18:22 35.90393 -111.52143 30957 ft 370 kts
2026-05-07 18:22 35.95513 -111.51202 30455 ft 374 kts
2026-05-07 18:22 35.98090 -111.50729 29992 ft 372 kts
2026-05-07 18:23 36.00660 -111.50256 29541 ft 370 kts
2026-05-07 18:23 36.03167 -111.49795 29029 ft 371 kts
2026-05-07 18:23 36.05776 -111.49313 28222 ft 380 kts
2026-05-07 18:23 36.08406 -111.48829 27449 ft 385 kts
2026-05-07 18:24 36.11058 -111.48340 26732 ft 386 kts
2026-05-07 18:24 36.13707 -111.47851 25991 ft 387 kts
2026-05-07 18:24 36.16354 -111.47362 25155 ft 387 kts
2026-05-07 18:24 36.18999 -111.46873 24190 ft 387 kts
2026-05-07 18:25 36.21643 -111.46384 23154 ft 381 kts
2026-05-07 18:25 36.24275 -111.45897 22124 ft 376 kts
2026-05-07 18:25 36.26812 -111.45427 21138 ft 371 kts
2026-05-07 18:25 36.29345 -111.44958 20151 ft 367 kts
2026-05-07 18:26 36.31839 -111.44495 19177 ft 363 kts
2026-05-07 18:26 36.34338 -111.44031 18201 ft 359 kts
2026-05-07 18:26 36.36777 -111.43578 17252 ft 355 kts
2026-05-07 18:26 36.39178 -111.43132 16316 ft 352 kts
2026-05-07 18:27 36.41580 -111.42686 15378 ft 348 kts
2026-05-07 18:27 36.43975 -111.42240 14443 ft 346 kts
2026-05-07 18:27 36.46339 -111.41799 13518 ft 343 kts
2026-05-07 18:27 36.47886 -111.41511 12915 ft 341 kts
2026-05-07 18:28 36.50989 -111.40932 11710 ft 338 kts
2026-05-07 18:28 36.53294 -111.40503 10818 ft 336 kts
2026-05-07 18:28 36.55570 -111.40078 9901 ft 328 kts
2026-05-07 18:28 36.57757 -111.39670 8993 ft 305 kts
2026-05-07 18:29 36.59745 -111.39298 8660 ft 275 kts
2026-05-07 18:29 36.61588 -111.38954 8632 ft 268 kts
2026-05-07 18:29 36.63464 -111.38631 8620 ft 270 kts
2026-05-07 18:29 36.65327 -111.38898 8627 ft 271 kts 349°
2026-05-07 18:30 36.67184 -111.39299 8617 ft 273 kts 349°
2026-05-07 18:30 36.69091 -111.39712 8498 ft 279 kts 349°
2026-05-07 18:30 36.70992 -111.40122 7949 ft 282 kts 349°
2026-05-07 18:30 36.72891 -111.40533 7715 ft 269 kts 349°
2026-05-07 18:31 36.74719 -111.40929 7672 ft 267 kts 349°
2026-05-07 18:31 36.76527 -111.41320 7470 ft 258 kts 349°
2026-05-07 18:31 36.78297 -111.41703 7105 ft 257 kts 349°
2026-05-07 18:31 36.79997 -111.42072 6994 ft 236 kts 349°
2026-05-07 18:32 36.81540 -111.42406 6901 ft 213 kts 349°
2026-05-07 18:32 36.82885 -111.42695 6709 ft 183 kts 350°
2026-05-07 18:32 36.84092 -111.42934 6274 ft 169 kts 350°
2026-05-07 18:32 36.85153 -111.43150 6004 ft 141 kts 349°
2026-05-07 18:33 36.86105 -111.43381 5649 ft 147 kts 347°
2026-05-07 18:33 36.87104 -111.43631 5351 ft 145 kts 348°
2026-05-07 18:33 36.88083 -111.43838 5120 ft 140 kts 349°
2026-05-07 18:33 36.89050 -111.44043 4914 ft 139 kts 349°
2026-05-07 18:34 36.90002 -111.44252 4727 ft 140 kts 349°
2026-05-07 18:34 36.90962 -111.44457 4515 ft 141 kts 350°
2026-05-07 18:34 36.91913 -111.44660 4302 ft 131 kts 349°
2026-05-07 18:34 36.92707 -111.44831 4258 ft 96 kts 350°
2026-05-07 18:35 36.93163 -111.44927 4243 ft 38 kts 351°
2026-05-07 18:35 36.93268 -111.44984 4240 ft 12 kts 286°
2026-05-07 18:35 36.93249 -111.45049 4240 ft 7 kts 201°
2026-05-07 18:35 36.93195 -111.45042 4241 ft 7 kts 170°
2026-05-07 18:36 36.93140 -111.45029 4244 ft 9 kts 170°
2026-05-07 18:36 36.93066 -111.45014 4247 ft 12 kts 170°
2026-05-07 18:36 36.92976 -111.44995 4250 ft 12 kts 170°
2026-05-07 18:36 36.92893 -111.44976 4253 ft 11 kts 168°
2026-05-07 18:37 36.92813 -111.44957 4256 ft 11 kts 169°
2026-05-07 18:37 36.92737 -111.44943 4259 ft 10 kts 173°
2026-05-07 18:37 36.92668 -111.44927 4262 ft 9 kts 170°
2026-05-07 18:37 36.92603 -111.44913 4264 ft 9 kts 170°
2026-05-07 18:38 36.92541 -111.44900 4266 ft 9 kts 169°
2026-05-07 18:38 36.92486 -111.44920 4268 ft 9 kts 249°
2026-05-07 18:38 36.92454 -111.44984 4270 ft 8 kts 249°
2026-05-07 18:38 36.92473 -111.45005 4268 ft 0 kts 350°